TimeCDT,TemperatureF,Dew PointF,Humidity,Sea Level PressureIn,VisibilityMPH,Wind Direction,Wind SpeedMPH,Gust SpeedMPH,PrecipitationIn,Events,Conditions,WindDirDegrees,DateUTC
12:54 AM,61.0,46.0,58,29.96,10.0,ESE,8.1,-,N/A,,Clear,120,2012-05-18 05:54:00
1:54 AM,60.1,45.0,57,29.96,10.0,SE,6.9,-,N/A,,Clear,130,2012-05-18 06:54:00
2:54 AM,59.0,45.0,60,29.96,10.0,SE,6.9,-,N/A,,Clear,130,2012-05-18 07:54:00
3:54 AM,57.0,45.0,64,29.97,10.0,SE,6.9,-,N/A,,Clear,130,2012-05-18 08:54:00
4:54 AM,57.9,45.0,62,29.96,10.0,ESE,6.9,-,N/A,,Clear,120,2012-05-18 09:54:00
5:54 AM,55.9,45.0,67,29.97,10.0,ESE,4.6,-,N/A,,Clear,120,2012-05-18 10:54:00
6:54 AM,57.9,46.0,65,29.98,10.0,ESE,6.9,-,N/A,,Clear,120,2012-05-18 11:54:00
7:54 AM,63.0,50.0,63,29.99,10.0,SSE,6.9,-,N/A,,Clear,150,2012-05-18 12:54:00
8:54 AM,68.0,54.0,61,29.99,10.0,SSE,10.4,-,N/A,,Clear,150,2012-05-18 13:54:00
9:54 AM,73.9,55.9,53,29.98,10.0,SSE,10.4,-,N/A,,Clear,160,2012-05-18 14:54:00
10:54 AM,77.0,55.0,47,29.97,10.0,South,9.2,-,N/A,,Clear,190,2012-05-18 15:54:00
11:54 AM,80.1,57.9,47,29.96,10.0,South,9.2,-,N/A,,Clear,180,2012-05-18 16:54:00
12:54 PM,82.0,60.1,47,29.95,10.0,SSE,9.2,-,N/A,,Clear,160,2012-05-18 17:54:00
1:54 PM,84.0,59.0,43,29.93,10.0,South,9.2,-,N/A,,Clear,170,2012-05-18 18:54:00
2:54 PM,84.9,57.9,40,29.91,10.0,South,12.7,17.3,N/A,,Partly Cloudy,170,2012-05-18 19:54:00
3:54 PM,84.0,57.0,40,29.89,10.0,South,9.2,-,N/A,,Partly Cloudy,170,2012-05-18 20:54:00
4:54 PM,84.9,57.9,40,29.88,10.0,SSE,10.4,-,N/A,,Partly Cloudy,150,2012-05-18 21:54:00
5:54 PM,84.0,57.9,41,29.87,10.0,SSE,6.9,-,N/A,,Clear,150,2012-05-18 22:54:00
6:54 PM,82.0,57.9,44,29.86,10.0,SE,6.9,-,N/A,,Clear,140,2012-05-18 23:54:00
7:54 PM,79.0,57.0,47,29.87,10.0,SE,4.6,-,N/A,,Clear,130,2012-05-19 00:54:00
8:54 PM,75.9,57.9,54,29.88,10.0,ESE,8.1,-,N/A,,Clear,120,2012-05-19 01:54:00
9:54 PM,73.9,57.0,55,29.89,10.0,ESE,8.1,-,N/A,,Clear,120,2012-05-19 02:54:00
10:54 PM,72.0,55.9,57,29.91,10.0,SE,6.9,-,N/A,,Clear,140,2012-05-19 03:54:00
11:54 PM,70.0,55.9,61,29.91,10.0,SSE,6.9,-,N/A,,Clear,150,2012-05-19 04:54:00